Location: Unspecified
(0.0000°N, 0.0000°E)
Time: 16:35:02
(UTC+00:00)

ARIANE 2 DEB - Pass Details

Date: 12 March 2026
Orbit: 794 x 35760 km, 8.3° (Epoch: 17 April)

Event Time Altitude Azimuth Distance (km) Brightness Sun altitude
Rises 16:03:57 0° 264° (W) 18,974 ? 31.4°
Reaches altitude 10° 16:30:34 10° 265° (W) 23,041 ? 24.7°
Maximum altitude 17:31:18 16° 267° (W) 30,999 ? 9.6°
Drops below altitude 10° 19:07:10 10° 270° (W) 38,925 ? -14.4°
Sets 20:37:12 0° 272° (W) 41,586 ? -36.8°
